Other Public Products
Issued by NWS Grand Forks, ND

Home | Current Version | Previous Version | Graphics & Text | Print | Product List | Glossary On
Versions: 1 2 3 4 5 6 7 8 9 10 11 12 13 14 15 16 17 18 19 20 21 22 23 24 25 26 27 28 29 30 31 32 33 34 35 36 37 38 39 40 41 42 43 44 45 46 47 48 49 50
000
FPUS83 KFGF 260010
OPUFGF
PRAIRIE TO PINES WEATHER ROUNDUP
NATIONAL WEATHER SERVICE EASTERN NORTH DAKOTA/GRAND FORKS ND
600 PM CST SUN JAN 25 2015

 **SATELLITE DATA USED TO AUGMENT SKY COVER AT AUTOMATED STATIONS**
 *****  WEATHER ACROSS EASTERN NORTH DAKOTA  *****

CITY           SKY/WX    TMP DP  RH WIND       PRES   REMARKS
GRAND FORKS    CLOUDY    26  19  74 S8        29.95F WCI  18
6HR MIN TEMP:  22; 6HR MAX TEMP:  26;

GRAND FORKS AF CLOUDY    26  19  74 S9        29.94F WCI  17
GRAND CITY NWS   N/A     25 N/A N/A S12         N/A  WCI  14
BUXTON         NOT AVBL
DEVILS LAKE    CLOUDY    27  21  80 S8        29.86F WCI  18
6HR MIN TEMP:  19; 6HR MAX TEMP:  27;

FARGO          CLOUDY    26  17  68 S6        29.99F WCI  19
6HR MIN TEMP:  24; 6HR MAX TEMP:  27;

WAHPETON ARPT  CLOUDY    27  19  74 S3        30.01S
$$

 *****  WEATHER ACROSS CENTRAL AND WESTERN NORTH DAKOTA  *****

CITY           SKY/WX    TMP DP  RH WIND       PRES   REMARKS
JAMESTOWN      CLOUDY    29  26  89 S10       29.90F WCI  20
6HR MIN TEMP:  23; 6HR MAX TEMP:  29;

BISMARCK       CLOUDY    36  32  85 S3        29.89F
6HR MIN TEMP:  35; 6HR MAX TEMP:  37;

MINOT          MOCLDY    36  30  79 S10       29.79F
6HR MIN TEMP:  27; 6HR MAX TEMP:  36;

MINOT AFB      MOCLDY    34  34  99 S8        29.78F
6HR MIN TEMP:  26; 6HR MAX TEMP:  35;

GARRISON         N/A     34  32  92 S5        29.83F
6HR MIN TEMP:  33; 6HR MAX TEMP:  36;

WILLISTON      PTCLDY    40  31  70 SW7       29.82S
6HR MIN TEMP:  36; 6HR MAX TEMP:  43;

DICKINSON      MOCLDY    41  30  65 SW15      29.83F
6HR MIN TEMP:  37; 6HR MAX TEMP:  46;

HETTINGER      PTCLDY    39  26  59 S5        29.90S
6HR MIN TEMP:  38; 6HR MAX TEMP:  46;

$$

 *****  OTHER OBSERVATIONS NORTHEAST NORTH DAKOTA  *****

CITY           SKY/WX    TMP DP  RH WIND       PRES   REMARKS
WALHALLA         N/A     25  25 100 S8        29.88F WCI  16
LANGDON        CLOUDY    23  21  93 S13       29.83F WCI  11
CAVALIER       CLOUDY    27  23  86 S10       29.89F WCI  17
GRAFTON        NOT AVBL
CANDO          CLOUDY    25  23  93 S10       29.85F WCI  15
FORT TOTTEN    NOT AVBL
ROLLA          CLOUDY    23  23 100 S14       29.78F WCI  11
RUGBY          CLOUDY    27  27 100 S9        29.82F WCI  17
 ***** THE ABOVE OBSERVATIONS ARE NON NWS ARE NOT QUALITY
        CONTROLLED AND MAY MIS-REPORT RAIN FOR SNOW...
$$

 *****  OTHER OBSERVATIONS SOUTHEAST NORTH DAKOTA *****

CITY           SKY/WX    TMP DP  RH WIND       PRES   REMARKS
COOPERSTOWN    NOT AVBL
VALLEY CITY    NOT AVBL
OAKES            N/A     27  27 100 S10       29.96S WCI  17
GWINNER        CLOUDY    28  28 100 SW6       29.98R WCI  22
SHEYENNE NWR     N/A     26  19  76 S3        29.95
BUFFALO        NOT AVBL
WYNDMERE         N/A     27  21  80 S6          N/A  WCI  20
 ***** THE ABOVE OBSERVATIONS ARE NON NWS ARE NOT QUALITY
       CONTROLLED AND MAY MIS-REPORT RAIN FOR SNOW...
$$

  *****  WEATHER ACROSS NORTHERN MINNESOTA  *****

CITY           SKY/WX    TMP DP  RH WIND       PRES   REMARKS
FLAG ISLAND    CLOUDY    14   9  79 S8        29.91F WCI   3
WARROAD        CLOUDY    19  12  73 S6        29.92F WCI  11
ROSEAU         CLOUDY    19  12  73 S6        29.93F WCI  11
HALLOCK        CLOUDY    19  14  79 S16       29.91F WCI   5
THF RVR FALLS  CLOUDY    19  16  86 S6        29.95F WCI  11
6HR MIN TEMP:  14; 6HR MAX TEMP:  19;

HALSTAD          N/A     25  14  62 S7          N/A  WCI  18
FOSSTON        CLOUDY    21  16  79 SW7       29.98R WCI  13
BAUDETTE       CLOUDY    20  12  71 SW3       29.92F
6HR MIN TEMP:   9; 6HR MAX TEMP:  20;

WASKISH        CLOUDY    19  16  86 CALM      29.95F
CROOKSTON      CLOUDY    25  18  74 S8        29.98F WCI  16
$$
  *****  WEATHER ACROSS CENTRAL AND WEST MINNESOTA  *****

CITY           SKY/WX    TMP DP  RH WIND       PRES   REMARKS
BEMIDJI        CLOUDY    25  18  74 S5        29.94F WCI  19
PARK RAPIDS    CLOUDY    27  19  72 S6        29.97R WCI  20
6HR MIN TEMP:  25; 6HR MAX TEMP:  29;

WADENA         CLOUDY    27  21  80 SW7       29.98R WCI  19
DETROIT LAKES  CLOUDY    27  21  80 SW6       30.00R WCI  20
MOORHEAD       CLOUDY    25  19  80 S5        30.00F WCI  19
FERGUS FALLS   CLOUDY    21  19  93 CALM      30.04R
ELBOW LAKE     CLOUDY    23  22  93 W5        30.00S WCI  17
MORRIS MN      CLOUDY    25  21  86 SW3       30.00S
STAPLES        MOCLDY    23  18  80 S3        29.99R
WHEATON        MOCLDY    23  18  80 CALM      30.04R
$$
  *****  WEATHER ELSEWHERE ACROSS MINNESOTA  *****

CITY           SKY/WX    TMP DP  RH WIND       PRES   REMARKS
DULUTH         CLOUDY    20  14  77 CALM      30.01R
6HR MIN TEMP:  19; 6HR MAX TEMP:  20; 6HR PCP: TRACE;

INTRNTL FALLS  CLOUDY    17  10  74 SE3       29.94F
6HR MIN TEMP:   8; 6HR MAX TEMP:  19;

ELY            PTCLDY    14   9  79 S5        29.99S WCI   6
CLOQUET        PTCLDY    18  12  79 CALM      30.02R
BRAINERD       PTCLDY    23  14  68 SE3       30.00S
6HR MIN TEMP:  22; 6HR MAX TEMP:  27;

HIBBING        CLOUDY    21  12  68 S7        29.99S WCI  12
6HR MIN TEMP:  20; 6HR MAX TEMP:  24;

ALEXANDRIA     CLOUDY    25  20  81 SW6       29.99S WCI  18
6HR MIN TEMP:  25; 6HR MAX TEMP:  27;

SAINT CLOUD    CLEAR     24  16  71 E3        30.02F
6HR MIN TEMP:  23; 6HR MAX TEMP:  28;

MINNEAPOLIS    PTCLDY    23  12  62 SE5       30.05S WCI  17
6HR MIN TEMP:  22; 6HR MAX TEMP:  27;

$$

  *****  WEATHER ACROSS SOUTH DAKOTA  *****

CITY           SKY/WX    TMP DP  RH WIND       PRES   REMARKS
SIOUX FALLS    CLOUDY    33  30  88 W3        30.02F
6HR MIN TEMP:  33; 6HR MAX TEMP:  35;

BROOKINGS      NOT AVBL
WATERTOWN      CLOUDY    30  27  88 W8        29.97S WCI  22
6HR MIN TEMP:  29; 6HR MAX TEMP:  30;

HURON          CLOUDY    33  30  88 S5        30.01F
6HR MIN TEMP:  31; 6HR MAX TEMP:  34;

SISSETON         N/A     24  21  88 SE6       29.98F WCI  17
ABERDEEN       CLOUDY    31  28  89 S9        29.98F WCI  23
6HR MIN TEMP:  29; 6HR MAX TEMP:  31;

MITCHELL       CLOUDY    35  31  85 S5        30.02F
PIERRE         MOCLDY    37  28  70 S5        29.97S
6HR MIN TEMP:  36; 6HR MAX TEMP:  43;

MOBRIDGE       CLOUDY    38  31  76 S3        29.91F
RAPID CITY     MOCLDY    43  23  45 SE5       29.95S
6HR MIN TEMP:  42; 6HR MAX TEMP:  50;

$$

  *****  SOME WEATHER IN NEARBY STATES *****

CITY           SKY/WX    TMP DP  RH WIND       PRES   REMARKS
GLASGOW MT     CLEAR     45  36  70 CALM      29.85R
6HR MIN TEMP:  36; 6HR MAX TEMP:  50;

GREAT FALLS MT CLOUDY    54  31  41 SW18      30.04R
6HR MIN TEMP:  52; 6HR MAX TEMP:  59;

CHEYENNE WY    CLEAR     46  27  47 NW14      30.14R
6HR MIN TEMP:  46; 6HR MAX TEMP:  52;

SCOTTSBLUFF NE CLEAR     47  34  60 W9        30.06R
6HR MIN TEMP:  43; 6HR MAX TEMP:  54; 6HR PCP: TRACE;

OMAHA NE       CLOUDY    38  32  79 NW6       30.08R
6HR MIN TEMP:  38; 6HR MAX TEMP:  43;

DES MOINES IA  CLOUDY    34  27  75 N10       30.05R
6HR MIN TEMP:  34; 6HR MAX TEMP:  36;

DAVENPORT IA   CLEAR     23  15  71 N13       30.01R WCI  11
6HR MIN TEMP:  23; 6HR MAX TEMP:  29; 6HR PCP: TRACE;

CHICAGO IL     CLOUDY    26  17  68 N16       29.94R WCI  14
6HR MIN TEMP:  26; 6HR MAX TEMP:  30; 6HR PCP:  0.01;

EAU CLAIRE WI  CLOUDY    21  10  62 CALM      30.04R
6HR MIN TEMP:  21; 6HR MAX TEMP:  24;

LA CROSSE WI   PTCLDY    24  14  65 N5        30.05R WCI  18
6HR MIN TEMP:  24; 6HR MAX TEMP:  31;

$$

  *****  SOME NATIONAL WEATHER *****

CITY           SKY/WX    TMP DP  RH WIND       PRES   REMARKS
LA GUARDIA NY  MOCLDY    35   9  33 NW14      29.91R



USA.gov is the U.S. government's official web portal to all federal, state and local government web resources and services.